Powrót do katalogu

CZ-4 DEB

AktywnySSO
NORAD 23259·DEBRIS·🇨🇳 China

Wystrzelony Sep 3, 1990 z Taiyuan Satellite Launch Center

Loading…

Następne Przeloty (najbliższe 24 godziny)

TLE

ŚwieżeSource: Space-Track

Epoka: Sep 12, 2026, 05:42 UTC

1 23259U 90081CQ  26255.23785207  .00001015  00000-0  37259-3 0  9999
2 23259  98.5604 253.1479 0018868  92.4844 267.8501 14.34782147822707

Śledź CZ-4 DEB w czasie rzeczywistym z AllMySat

Download on the App Store